2014-12-18 00:03:25 r, 17.83m,0000000006Hz,0000070901c,0000000.154s, 006.1C,00002195
2014-12-18 00:13:25 r, 17.82m,0000000007Hz,0000070402c,0000000.153s, 006.1C,00002195
2014-12-18 00:23:25 r, 17.86m,0000000007Hz,0000072895c,0000000.158s, 006.1C,00002195
2014-12-18 00:33:25 r, 17.86m,0000000007Hz,0000072302c,0000000.157s, 006.1C,00002195
2014-12-18 00:43:25 r, 17.87m,0000000006Hz,0000073708c,0000000.160s, 006.1C,00002195
2014-12-18 00:53:25 r, 17.89m,0000000006Hz,0000074276c,0000000.161s, 005.8C,00002195
2014-12-18 01:03:25 r, 17.88m,0000000007Hz,0000073998c,0000000.161s, 005.8C,00002195
2014-12-18 01:13:25 r, 17.90m,0000000007Hz,0000075632c,0000000.164s, 005.4C,00002195
2014-12-18 01:23:25 r, 17.89m,0000000007Hz,0000074926c,0000000.163s, 005.4C,00002195
2014-12-18 01:33:25 r, 17.88m,0000000006Hz,0000074195c,0000000.161s, 005.4C,00002195
2014-12-18 01:43:25 r, 17.90m,0000000006Hz,0000075572c,0000000.164s, 005.4C,00002195
2014-12-18 01:53:25 r, 17.89m,0000000006Hz,0000074837c,0000000.162s, 005.4C,00002195
2014-12-18 02:03:25 r, 17.91m,0000000006Hz,0000075890c,0000000.165s, 005.4C,00002195
2014-12-18 02:13:25 r, 17.91m,0000000006Hz,0000075803c,0000000.165s, 005.4C,00002195
2014-12-18 02:23:25 r, 17.91m,0000000006Hz,0000075835c,0000000.165s, 005.4C,00002195
2014-12-18 02:33:25 r, 17.91m,0000000006Hz,0000076408c,0000000.166s, 005.4C,00002195
2014-12-18 02:43:25 r, 17.87m,0000000006Hz,0000073719c,0000000.160s, 005.4C,00002195
2014-12-18 02:53:25 r, 17.80m,0000000007Hz,0000069073c,0000000.150s, 005.4C,00002195
2014-12-18 03:03:25 r, 17.81m,0000000007Hz,0000069244c,0000000.150s, 005.1C,00002195
2014-12-18 03:13:25 r, 17.86m,0000000006Hz,0000072276c,0000000.157s, 005.1C,00002195
2014-12-18 03:23:25 r, 17.89m,0000000006Hz,0000074869c,0000000.162s, 005.4C,00002195
2014-12-18 03:33:25 r, 17.89m,0000000006Hz,0000074879c,0000000.162s, 005.1C,00002195
2014-12-18 03:43:25 r, 17.88m,0000000006Hz,0000073937c,0000000.160s, 005.1C,00002195
2014-12-18 03:53:25 r, 17.83m,0000000007Hz,0000070982c,0000000.154s, 005.1C,00002195
2014-12-18 04:03:25 r, 17.83m,0000000007Hz,0000071154c,0000000.154s, 005.1C,00002195
2014-12-18 04:13:25 r, 17.89m,0000000006Hz,0000074809c,0000000.162s, 005.1C,00002195
2014-12-18 04:23:25 r, 17.90m,0000000006Hz,0000075601c,0000000.164s, 005.1C,00002195
2014-12-18 04:33:25 r, 17.91m,0000000006Hz,0000075818c,0000000.165s, 005.1C,00002195
2014-12-18 04:43:25 r, 17.91m,0000000006Hz,0000076603c,0000000.166s, 005.1C,00002195
2014-12-18 04:53:25 r, 17.90m,0000000007Hz,0000075750c,0000000.164s, 005.1C,00002195
2014-12-18 05:03:25 r, 17.91m,0000000006Hz,0000075824c,0000000.165s, 005.1C,00002195
2014-12-18 05:13:25 r, 17.91m,0000000006Hz,0000076604c,0000000.166s, 005.1C,00002195
2014-12-18 05:23:25 r, 17.91m,0000000006Hz,0000075802c,0000000.165s, 005.1C,00002195
2014-12-18 05:33:25 r, 17.90m,0000000006Hz,0000075442c,0000000.164s, 005.1C,00002195
2014-12-18 05:43:25 r, 17.88m,0000000006Hz,0000074141c,0000000.161s, 005.1C,00002195
2014-12-18 05:53:25 r, 17.86m,0000000006Hz,0000072951c,0000000.158s, 005.1C,00002195
2014-12-18 06:03:25 r, 17.82m,0000000007Hz,0000070192c,0000000.152s, 005.4C,00002195
2014-12-18 06:13:25 r, 17.79m,0000000006Hz,0000068180c,0000000.148s, 005.4C,00002195
2014-12-18 06:23:25 r, 17.80m,0000000006Hz,0000068828c,0000000.149s, 005.4C,00002195
2014-12-18 06:33:25 r, 17.81m,0000000006Hz,0000069209c,0000000.150s, 005.4C,00002195
2014-12-18 06:43:25 r, 17.82m,0000000007Hz,0000069984c,0000000.152s, 005.1C,00002195
2014-12-18 06:53:25 r, 17.79m,0000000007Hz,0000067989c,0000000.148s, 005.1C,00002195
2014-12-18 07:03:25 r, 17.66m,0000000007Hz,0000060491c,0000000.131s, 005.1C,00002195
2014-12-18 07:13:25 r, 17.25m,0000000011Hz,0000041275c,0000000.090s, 005.1C,00002195
2014-12-18 07:23:25 r, 16.33m,0000000026Hz,0000017875c,0000000.039s, 005.1C,00002195
2014-12-18 07:33:25 r, 14.89m,0000000097Hz,0000004732c,0000000.010s, 005.1C,00002195
2014-12-18 07:43:25 r, 13.09m,0000000519Hz,0000000000c,0000000.000s, 004.8C,00002195
2014-12-18 07:53:25 r, 11.17m,0000003015Hz,0000000000c,0000000.000s, 004.8C,00002195
2014-12-18 08:03:25 r, 09.44m,0000014957Hz,0000000000c,0000000.000s, 004.8C,00002195
2014-12-18 08:13:25 r, 08.11m,0000050914Hz,0000000000c,0000000.000s, 004.8C,00002195
2014-12-18 08:23:25 r, 07.31m,0000105482Hz,0000000000c,0000000.000s, 004.8C,00002195
2014-12-18 08:33:25 r, 06.63m,0000198314Hz,0000000000c,0000000.000s, 004.8C,00002195
2014-12-18 08:43:25 r, 06.10m,0000323780Hz,0000000000c,0000000.000s, 004.8C,00002195
2014-12-18 08:53:25 r, 00.00m,0000461024Hz,0000000000c,0000000.000s, 005.1C,00002195
2014-12-18 09:03:25 r, 00.00m,0000495773Hz,0000000000c,0000000.000s, 005.1C,00002195
2014-12-18 09:13:25 r, 00.00m,0000561357Hz,0000000000c,0000000.000s, 005.4C,00002195
2014-12-18 09:23:25 r, 00.00m,0000561402Hz,0000000000c,0000000.000s, 005.4C,00002195
2014-12-18 09:33:25 r, 00.00m,0000561391Hz,0000000000c,0000000.000s, 005.8C,00002195
2014-12-18 09:43:25 r, 00.00m,0000561512Hz,0000000000c,0000000.000s, 006.4C,00002195
2014-12-18 09:53:25 r, 00.00m,0000561611Hz,0000000000c,0000000.000s, 007.0C,00002195
2014-12-18 10:03:25 r, 00.00m,0000561789Hz,0000000000c,0000000.000s, 007.7C,00002195
2014-12-18 10:13:25 r, 00.00m,0000561862Hz,0000000000c,0000000.000s, 008.3C,00002195
2014-12-18 10:23:25 r, 00.00m,0000561794Hz,0000000000c,0000000.000s, 009.0C,00002195
2014-12-18 10:33:25 r, 00.00m,0000562009Hz,0000000000c,0000000.000s, 009.6C,00002195
2014-12-18 10:43:25 r, 00.00m,0000562048Hz,0000000000c,0000000.000s, 009.9C,00002195
2014-12-18 10:53:25 r, 00.00m,0000562251Hz,0000000000c,0000000.000s, 011.2C,00002195
2014-12-18 11:03:25 r, 00.00m,0000562327Hz,0000000000c,0000000.000s, 012.2C,00002195
2014-12-18 11:13:25 r, 00.00m,0000562487Hz,0000000000c,0000000.000s, 013.2C,00002195
2014-12-18 11:23:25 r, 00.00m,0000562557Hz,0000000000c,0000000.000s, 013.8C,00002195
2014-12-18 11:33:25 r, 00.00m,0000562553Hz,0000000000c,0000000.000s, 014.1C,00002195
2014-12-18 11:43:25 r, 00.00m,0000562706Hz,0000000000c,0000000.000s, 014.5C,00002195
2014-12-18 11:53:25 r, 00.00m,0000562557Hz,0000000000c,0000000.000s, 014.1C,00002195
2014-12-18 12:03:25 r, 00.00m,0000562724Hz,0000000000c,0000000.000s, 014.1C,00002195
2014-12-18 12:13:25 r, 00.00m,0000562652Hz,0000000000c,0000000.000s, 014.1C,00002195
2014-12-18 12:23:25 r, 00.00m,0000562664Hz,0000000000c,0000000.000s, 014.5C,00002195
2014-12-18 12:33:25 r, 00.00m,0000562710Hz,0000000000c,0000000.000s, 014.8C,00002195
2014-12-18 12:43:25 r, 00.00m,0000562755Hz,0000000000c,0000000.000s, 015.1C,00002195
2014-12-18 12:53:25 r, 00.00m,0000562772Hz,0000000000c,0000000.000s, 015.4C,00002195
2014-12-18 13:03:25 r, 00.00m,0000562826Hz,0000000000c,0000000.000s, 015.4C,00002195
2014-12-18 13:13:25 r, 00.00m,0000562835Hz,0000000000c,0000000.000s, 015.4C,00002195
2014-12-18 13:23:25 r, 00.00m,0000562782Hz,0000000000c,0000000.000s, 015.7C,00002195
2014-12-18 13:33:25 r, 00.00m,0000562909Hz,0000000000c,0000000.000s, 015.4C,00002195
2014-12-18 13:43:25 r, 00.00m,0000562737Hz,0000000000c,0000000.000s, 015.4C,00002195
2014-12-18 13:53:25 r, 00.00m,0000562572Hz,0000000000c,0000000.000s, 014.1C,00002195
2014-12-18 14:03:25 r, 00.00m,0000562539Hz,0000000000c,0000000.000s, 013.2C,00002195
2014-12-18 14:13:25 r, 00.00m,0000562347Hz,0000000000c,0000000.000s, 012.8C,00002195
2014-12-18 14:23:25 r, 00.00m,0000562364Hz,0000000000c,0000000.000s, 012.8C,00002195
2014-12-18 14:33:25 r, 00.00m,0000562286Hz,0000000000c,0000000.000s, 012.8C,00002195
2014-12-18 14:43:25 r, 00.00m,0000562295Hz,0000000000c,0000000.000s, 012.5C,00002195
2014-12-18 14:53:25 r, 00.00m,0000562277Hz,0000000000c,0000000.000s, 012.5C,00002195
2014-12-18 15:03:25 r, 00.00m,0000562277Hz,0000000000c,0000000.000s, 012.5C,00002195
2014-12-18 15:13:25 r, 00.00m,0000562206Hz,0000000000c,0000000.000s, 012.2C,00002195
2014-12-18 15:23:25 r, 00.00m,0000562283Hz,0000000000c,0000000.000s, 011.9C,00002195
2014-12-18 15:33:25 r, 00.00m,0000535566Hz,0000000000c,0000000.000s, 011.9C,00002195
2014-12-18 15:43:25 r, 00.00m,0000440407Hz,0000000000c,0000000.000s, 011.6C,00002195
2014-12-18 15:53:25 r, 05.92m,0000382290Hz,0000000000c,0000000.000s, 011.6C,00002195
2014-12-18 16:03:25 r, 05.97m,0000364124Hz,0000000000c,0000000.000s, 011.6C,00002195
2014-12-18 16:13:25 r, 06.25m,0000280974Hz,0000000000c,0000000.000s, 011.2C,00002195
2014-12-18 16:23:25 r, 06.84m,0000164554Hz,0000000000c,0000000.000s, 011.6C,00002195
2014-12-18 16:33:25 r, 07.58m,0000082814Hz,0000000000c,0000000.000s, 011.2C,00002195
2014-12-18 16:43:25 r, 08.83m,0000026212Hz,0000000000c,0000000.000s, 011.2C,00002195
2014-12-18 16:53:25 r, 10.29m,0000006796Hz,0000000000c,0000000.000s, 011.2C,00002195
2014-12-18 17:03:25 r, 12.15m,0000001234Hz,0000000000c,0000000.000s, 011.2C,00002195
2014-12-18 17:13:25 r, 13.77m,0000000276Hz,0000000000c,0000000.000s, 010.9C,00002195
2014-12-18 17:23:25 r, 14.90m,0000000097Hz,0000004783c,0000000.010s, 011.2C,00002195
2014-12-18 17:33:25 r, 15.10m,0000000081Hz,0000005699c,0000000.012s, 011.2C,00002195
2014-12-18 17:43:25 r, 15.21m,0000000073Hz,0000006321c,0000000.014s, 011.2C,00002195
2014-12-18 17:53:25 r, 14.89m,0000000097Hz,0000004730c,0000000.010s, 011.2C,00002195
2014-12-18 18:03:25 r, 14.78m,0000000108Hz,0000004270c,0000000.009s, 011.6C,00002195
2014-12-18 18:13:25 r, 14.75m,0000000111Hz,0000004131c,0000000.009s, 011.6C,00002195
2014-12-18 18:23:25 r, 14.68m,0000000119Hz,0000003877c,0000000.008s, 011.6C,00002195
2014-12-18 18:33:25 r, 14.66m,0000000120Hz,0000003794c,0000000.008s, 011.6C,00002195
2014-12-18 18:43:25 r, 14.66m,0000000121Hz,0000003802c,0000000.008s, 011.6C,00002195
2014-12-18 18:53:25 r, 14.76m,0000000112Hz,0000004162c,0000000.009s, 011.2C,00002195
2014-12-18 19:03:25 r, 14.80m,0000000105Hz,0000004335c,0000000.009s, 011.6C,00002195
2014-12-18 19:13:25 r, 14.82m,0000000103Hz,0000004425c,0000000.010s, 011.6C,00002195
2014-12-18 19:23:25 r, 14.74m,0000000110Hz,0000004119c,0000000.009s, 011.6C,00002195
2014-12-18 19:33:25 r, 14.81m,0000000104Hz,0000004389c,0000000.010s, 011.9C,00002195
2014-12-18 19:43:25 r, 14.86m,0000000101Hz,0000004590c,0000000.010s, 011.9C,00002195
2014-12-18 19:53:25 r, 14.94m,0000000093Hz,0000004932c,0000000.011s, 011.9C,00002195
2014-12-18 20:03:25 r, 14.90m,0000000096Hz,0000004795c,0000000.010s, 011.9C,00002195
2014-12-18 20:13:25 r, 14.90m,0000000096Hz,0000004744c,0000000.010s, 011.9C,00002195
2014-12-18 20:23:25 r, 14.97m,0000000091Hz,0000005112c,0000000.011s, 011.6C,00002195
2014-12-18 20:33:25 r, 15.10m,0000000081Hz,0000005711c,0000000.012s, 011.6C,00002195
2014-12-18 20:43:25 r, 15.18m,0000000074Hz,0000006124c,0000000.013s, 011.6C,00002195
2014-12-18 20:53:25 r, 15.24m,0000000071Hz,0000006499c,0000000.014s, 011.6C,00002195
2014-12-18 21:03:25 r, 15.47m,0000000058Hz,0000008053c,0000000.017s, 011.6C,00002195
2014-12-18 21:13:25 r, 15.96m,0000000036Hz,0000012548c,0000000.027s, 011.6C,00002195
2014-12-18 21:23:25 r, 15.76m,0000000044Hz,0000010509c,0000000.023s, 011.6C,00002195
2014-12-18 21:33:25 r, 15.71m,0000000046Hz,0000010028c,0000000.022s, 011.6C,00002195
2014-12-18 21:43:25 r, 15.91m,0000000038Hz,0000012000c,0000000.026s, 011.6C,00002195
2014-12-18 21:53:25 r, 15.27m,0000000068Hz,0000006676c,0000000.014s, 011.2C,00002195
2014-12-18 22:03:25 r, 15.24m,0000000072Hz,0000006478c,0000000.014s, 011.2C,00002195
2014-12-18 22:13:25 r, 15.25m,0000000071Hz,0000006561c,0000000.014s, 011.6C,00002195
2014-12-18 22:23:25 r, 15.78m,0000000043Hz,0000010743c,0000000.023s, 011.6C,00002195
2014-12-18 22:33:25 r, 15.24m,0000000070Hz,0000006510c,0000000.014s, 011.2C,00002195
2014-12-18 22:43:25 r, 15.27m,0000000069Hz,0000006711c,0000000.015s, 011.6C,00002195
2014-12-18 22:53:25 r, 15.10m,0000000080Hz,0000005673c,0000000.012s, 011.6C,00002195
2014-12-18 23:03:25 r, 14.83m,0000000101Hz,0000004472c,0000000.010s, 011.6C,00002195
2014-12-18 23:13:25 r, 14.75m,0000000112Hz,0000004153c,0000000.009s, 011.6C,00002195
2014-12-18 23:23:25 r, 14.57m,0000000132Hz,0000000000c,0000000.000s, 011.6C,00002195
2014-12-18 23:33:25 r, 14.52m,0000000139Hz,0000000000c,0000000.000s, 011.6C,00002195
2014-12-18 23:43:25 r, 14.48m,0000000143Hz,0000000000c,0000000.000s, 011.6C,00002195
2014-12-18 23:53:25 r, 14.53m,0000000137Hz,0000000000c,0000000.000s, 011.6C,00002195
